Regional Weather Roundup
Issued by NWS

Home | Current Version | Previous Version | Graphics & Text | Print | Product List | Glossary On
Versions: 1 2 3 4 5 6 7 8 9 10 11 12 13 14 15 16 17 18 19 20 21 22 23 24 25 26 27 28 29 30 31 32 33 34 35 36 37 38 39 40 41 42 43 44 45 46 47 48 49 50
000
ASUS45 KSLC 061910
RWRUT

UTAH REGIONAL WEATHER ROUNDUP
NATIONAL WEATHER SERVICE SALT LAKE CITY UT
100 PM MDT MON JUL 06 2015

UTZ001>011-023>025-062000-

NORTHERN UTAH

CITY           SKY/WX    TMP DP  RH WIND       PRES   REMARKS
BRIGHAM CITY   MOSUNNY   84  49  29 SW5       30.10F
HILL AFB       MOSUNNY   81  55  41 VRB5      30.14F
LOGAN          SUNNY     82  54  37 S6        30.11F
OGDEN          MOSUNNY   84  54  35 W8        30.11F
PROVO AIRPORT  PTSUNNY   82  48  30 VRB5      30.12F
SALT LAKE CITY PTSUNNY   83  59  44 NW10      30.10F
VERNAL         SUNNY     80  52  37 VRB5      30.16F
WENDOVER       MOSUNNY   84  46  26 N8        30.12F
HEBER CITY     PTSUNNY   82  43  24 W3        30.17F
WEST JORDAN    MOSUNNY   82  57  42 N10       30.13F

$$

UTZ012>022-026-027-062000-

SOUTHERN/CENTRAL UTAH

CITY           SKY/WX    TMP DP  RH WIND       PRES   REMARKS
BLANDING       CLOUDY    74  58  57 W9        30.29S
BRYCE CANYON   LGT RAIN  60  54  80 W7        30.39S
CEDAR CITY     CLOUDY    78  46  32 CALM      30.23F
DELTA          CLOUDY    83  46  27 SW8       30.14F
HANKSVILLE     CLOUDY    81  55  41 CALM      30.14F
MILFORD        CLOUDY    82  48  30 W12       30.18F
MOAB/CYNLANDS  SUNNY     86  54  33 SW7       30.08F
PRICE          PTSUNNY   85  45  24 SW12      30.18F
ST GEORGE      MOCLDY    88  54  31 W7        30.07F
KANAB          PTSUNNY   81  54  39 NE5       30.25F

$$

REGIONAL REPORTS     COLORADO/ARIZONA

CITY           SKY/WX    TMP DP  RH WIND       PRES   REMARKS
CRAIG, CO      MOSUNNY   76  53  44 CALM      30.25F
GRAND JUNCTION MOSUNNY   82  56  40 SE9       30.13F
RIFLE          PTSUNNY   70  56  61 VRB5      30.22F
MONTROSE       CLOUDY    77  55  46 NW9       30.23S
CORTEZ         MOSUNNY   84  55  36 W17       30.18F
PAGE, AZ       CLOUDY    82  52  35 N8        30.14F
GRAND CANYON   PTSUNNY   70  51  51 W8G16     30.32S
KINGMAN        MOSUNNY   89  52  28 SW10G24   30.12F
FLAGSTAFF      PTSUNNY   72  47  40 W7        30.34F

$$

REGIONAL REPORTS    NEVADA/IDAHO/WYOMING

CITY           SKY/WX    TMP DP  RH WIND       PRES   REMARKS
LAS VEGAS, NV  MOSUNNY   94  53  25 SE6       29.97F HX  91
ELY            PTSUNNY   79  37  22 N9        30.25F
ELKO           SUNNY     83  47  28 VRB3      30.19F
POCATELLO, ID  PTSUNNY   77  59  53 NW14G20   30.17F
BURLEY         MOSUNNY   78  55  44 VRB6      30.14F
EVANSTON, WY   PTSUNNY   73  52  47 E7        30.29F
ROCK SPRINGS   MOSUNNY   70  53  54 E8        30.30F
KEMMERER       PTSUNNY   72  50  46 E6        30.31F

$$


USA.gov is the U.S. government's official web portal to all federal, state and local government web resources and services.